CW8398 Stockholm SE current weather conditions

sailwx.info

Wind from 141

Air temperature 21.1° C
Dewpoint 16.1° C

Last reported at 2019-Jul-21 14:03 UTC.
Time now 2019-Jul-21 14:57 UTC

Location: N 59°22' E 018°39'.
View on Google Maps.

See reports from other nearby stations

  
Tides and Currents Weather Stations Pressure Air Temp Water Temp Dewpoint Dewpoint Depression Visibility Wind Speed Wind Dir Waves Ship Positions
date/time (UTC)wind fromknots sea level pressurealtimeterstation pressurevisibilityair tempwater tempwave heightnotes
2019-Jul-21 14:03 141 21.1
2019-Jul-21 13:58 167 21.1
2019-Jul-21 13:53 21.1
2019-Jul-21 13:48 070 21.1
2019-Jul-21 13:43 113 21.1
2019-Jul-21 13:33 072 21.1
2019-Jul-21 13:28 007 21.1
2019-Jul-21 13:23 002 21.7
2019-Jul-21 13:18 21.7
2019-Jul-21 13:13 147 22.2
2019-Jul-21 13:08 109 22.2
2019-Jul-21 13:03 111 22.2
2019-Jul-21 12:53 062 22.8
2019-Jul-21 12:48 094 23.3
2019-Jul-21 12:43 086 22.8
2019-Jul-21 12:38 154 23.3
2019-Jul-21 12:33 096 23.3
2019-Jul-21 12:28 096 23.3
2019-Jul-21 12:23 104 23.3
2019-Jul-21 12:18 021 23.3
2019-Jul-21 12:13 23.3
2019-Jul-21 12:03 077 22.8
2019-Jul-21 11:58 041 22.2
2019-Jul-21 11:53 019 22.2
2019-Jul-21 11:48 111 22.2
2019-Jul-21 11:38 082 22.8
2019-Jul-21 11:33 23.3
2019-Jul-21 11:28 23.3
2019-Jul-21 11:23 084 23.3
2019-Jul-21 11:03 101 23.9
2019-Jul-21 10:43 087 23.9
2019-Jul-21 10:33 094 23.3
2019-Jul-21 10:28 23.3
2019-Jul-21 10:23 039 23.3
2019-Jul-21 10:18 107 22.8
2019-Jul-21 10:08 124 22.8
2019-Jul-21 10:03 124 22.8
2019-Jul-21 09:53 094 22.8
2019-Jul-21 09:48 102 22.2
2019-Jul-21 09:43 115 22.8
2019-Jul-21 09:38 063 22.8
2019-Jul-21 09:33 041 22.8
2019-Jul-21 09:28 114 22.8
2019-Jul-21 09:23 247 22.8
2019-Jul-21 09:18 063 22.8
2019-Jul-21 09:08 125 21.7
2019-Jul-21 08:48 125 21.1
2019-Jul-21 08:38 120 21.1
2019-Jul-21 08:28 21.7
2019-Jul-21 08:18 076 21.1
2019-Jul-21 08:13 21.1
2019-Jul-21 08:03 062 21.1
2019-Jul-21 07:53 133 21.1
2019-Jul-21 07:38 128 21.1
2019-Jul-21 07:33 142 20.6
2019-Jul-21 07:28 164 20.6
2019-Jul-21 07:18 095 20.6
2019-Jul-21 07:13 107 20.6
2019-Jul-21 07:08 104 20.0
2019-Jul-21 07:03 100 20.0
2019-Jul-21 06:58 100 20.0
2019-Jul-21 06:38 080 19.4
2019-Jul-21 06:33 011 19.4
2019-Jul-21 06:28 160 19.4
2019-Jul-21 06:23 110 19.4
2019-Jul-21 06:18 107 19.4
2019-Jul-21 06:13 130 19.4
2019-Jul-21 06:08 100 18.9
2019-Jul-21 06:03 089 18.9
2019-Jul-21 05:58 063 18.9
2019-Jul-21 05:53 098 18.9
2019-Jul-21 05:48 088 18.9
2019-Jul-21 05:38 18.3
2019-Jul-21 05:33 113 17.8
2019-Jul-21 05:28 137 17.8
2019-Jul-21 05:23 095 17.8
2019-Jul-21 05:18 138 17.8
2019-Jul-21 05:13 17.8
2019-Jul-21 05:08 195 17.8
2019-Jul-21 05:03 138 17.8
2019-Jul-21 04:53 136 17.8
2019-Jul-21 04:48 128 17.8
2019-Jul-21 04:38 092 17.8
2019-Jul-21 04:33 065 17.2
2019-Jul-21 04:23 071 17.2
2019-Jul-21 04:13 117 17.2
2019-Jul-21 04:08 122 16.7
2019-Jul-21 04:03 121 16.7
2019-Jul-21 03:58 121 16.7
2019-Jul-21 03:53 16.1
2019-Jul-21 03:48 133 16.1
2019-Jul-21 03:43 105 16.1
2019-Jul-21 03:33 110 16.1
2019-Jul-21 03:28 099 15.6
2019-Jul-21 03:23 109 15.6
2019-Jul-21 03:18 15.0
2019-Jul-21 03:08 013 14.4
2019-Jul-21 02:58 14.4
2019-Jul-21 02:53 14.4
2019-Jul-21 02:48 13.9
2019-Jul-21 02:43 13.9
2019-Jul-21 02:33 13.9
2019-Jul-21 02:28 154 13.3
2019-Jul-21 02:23 13.3
2019-Jul-21 02:18 13.3
2019-Jul-21 02:13 145 13.9
2019-Jul-21 01:58 13.9
2019-Jul-21 01:48 143 13.9
2019-Jul-21 01:43 140 14.4
2019-Jul-21 01:33 140 14.4
2019-Jul-21 01:08 011 13.9
2019-Jul-21 01:03 14.4
2019-Jul-21 00:58 14.4
2019-Jul-21 00:48 156 14.4
2019-Jul-21 00:38 118 15.0
2019-Jul-21 00:33 117 15.0
2019-Jul-21 00:23 161 15.0
2019-Jul-21 00:18 004 15.0
2019-Jul-21 00:13 158 15.0
2019-Jul-21 00:08 034 15.0
2019-Jul-20 23:58 007 15.0
2019-Jul-20 23:53 159 15.0
2019-Jul-20 23:43 160 0 gusting 17 15.0
2019-Jul-20 23:38 102 15.0
2019-Jul-20 23:33 080 15.6
2019-Jul-20 23:28 159 15.6
2019-Jul-20 23:23 006 15.6
2019-Jul-20 23:13 025 15.6
2019-Jul-20 23:08 008 15.6
2019-Jul-20 23:03 15.6
2019-Jul-20 22:48 158 16.1
2019-Jul-20 22:33 002 0 gusting 2 16.1
2019-Jul-20 22:28 126 16.1
2019-Jul-20 22:23 16.1
2019-Jul-20 22:18 130 16.1
2019-Jul-20 22:13 128 16.1
2019-Jul-20 22:03 160 0 gusting 6 16.1
2019-Jul-20 21:58 139 16.1
2019-Jul-20 21:53 152 16.1
2019-Jul-20 21:48 153 16.1
2019-Jul-20 21:43 157 16.1
2019-Jul-20 21:38 132 0 gusting 4 16.1
2019-Jul-20 21:33 137 0 gusting 4 16.1
2019-Jul-20 21:28 136 0 gusting 2 16.1
2019-Jul-20 21:23 139 16.1
2019-Jul-20 21:13 128 0 gusting 5 16.1
2019-Jul-20 21:08 139 16.1
2019-Jul-20 21:03 125 0 gusting 6 16.1
2019-Jul-20 20:58 16.1
2019-Jul-20 20:53 151 0 gusting 5 16.1
2019-Jul-20 20:48 010 1 gusting 4 16.1
2019-Jul-20 20:33 16.7
2019-Jul-20 20:23 070 0 gusting 4 16.7
2019-Jul-20 20:18 145 17.2
2019-Jul-20 19:58 006 17.8
2019-Jul-20 19:48 17.8
2019-Jul-20 19:33 009 1 gusting 5 18.3
2019-Jul-20 19:28 18.3
2019-Jul-20 19:18 134 0 gusting 6 18.3
2019-Jul-20 19:08 18.9
2019-Jul-20 19:03 008 1 gusting 2 18.9
2019-Jul-20 18:58 18.9
2019-Jul-20 18:43 001 19.4
2019-Jul-20 18:38 022 0 gusting 4 19.4
2019-Jul-20 18:33 040 1 gusting 7 20.0
2019-Jul-20 18:28 20.0
2019-Jul-20 18:23 20.0
2019-Jul-20 18:08 055 1 gusting 6 20.6
2019-Jul-20 18:03 20.6
2019-Jul-20 17:58 002 4 gusting 8 20.6
2019-Jul-20 17:48 351 2 gusting 6 21.1
2019-Jul-20 17:43 005 1 gusting 7 21.1
2019-Jul-20 17:33 21.1
2019-Jul-20 17:28 21.7
2019-Jul-20 17:23 123 1 gusting 6 21.7
2019-Jul-20 17:18 353 1 gusting 6 21.7
2019-Jul-20 17:13 351 2 gusting 6 21.7
2019-Jul-20 16:58 005 1 gusting 10 22.2
2019-Jul-20 16:53 355 2 gusting 6 22.2
2019-Jul-20 16:48 357 5 gusting 10 22.2
2019-Jul-20 16:43 22.2
2019-Jul-20 16:38 354 5 gusting 13 22.2
2019-Jul-20 16:33 22.2
2019-Jul-20 16:28 22.8
2019-Jul-20 16:18 22.8
2019-Jul-20 16:13 065 4 gusting 8 22.8
2019-Jul-20 16:08 22.8
2019-Jul-20 16:03 001 6 gusting 10 22.8
2019-Jul-20 15:58 22.8
2019-Jul-20 15:48 080 3 gusting 10 23.3
2019-Jul-20 15:43 008 2 gusting 10 23.3
2019-Jul-20 15:33 004 6 gusting 11 23.3
2019-Jul-20 15:28 024 3 gusting 10 23.3
2019-Jul-20 15:18 016 5 gusting 13 23.3
2019-Jul-20 15:13 002 3 gusting 10 23.3
2019-Jul-20 15:08 358 2 gusting 7 23.3
2019-Jul-20 15:03 019 5 gusting 10 23.3
2019-Jul-20 14:58 024 5 gusting 10 23.3
2019-Jul-20 14:48 003 5 gusting 11 23.9
2019-Jul-20 14:43 024 4 gusting 11 23.9
2019-Jul-20 14:38 011 4 gusting 10 23.9
2019-Jul-20 14:33 358 2 gusting 10 23.9
2019-Jul-20 14:28 23.9
2019-Jul-20 14:23 133 5 gusting 10 23.9
2019-Jul-20 14:18 23.9
2019-Jul-20 14:08 006 4 gusting 12 23.9
2019-Jul-20 14:03 012 6 gusting 11 23.9
2019-Jul-20 13:53 028 6 gusting 10 23.9
2019-Jul-20 13:48 001 6 gusting 12 23.9
2019-Jul-20 13:33 066 2 gusting 12 24.4
2019-Jul-20 13:28 002 4 gusting 12 24.4
2019-Jul-20 13:23 343 2 gusting 8 24.4
2019-Jul-20 13:18 24.4
2019-Jul-20 13:13 009 5 gusting 13 24.4
2019-Jul-20 12:58 356 6 gusting 13 24.4
2019-Jul-20 12:53 24.4
2019-Jul-20 12:48 24.4
2019-Jul-20 12:33 24.4
2019-Jul-20 12:23 019 5 gusting 12 24.4
2019-Jul-20 12:18 068 7 gusting 13 24.4
2019-Jul-20 12:13 122 4 gusting 15 24.4
2019-Jul-20 12:08 357 6 gusting 11 24.4
2019-Jul-20 12:03 192 6 gusting 12 24.4
2019-Jul-20 11:53 156 6 gusting 13 24.4
2019-Jul-20 11:48 24.4
2019-Jul-20 11:43 022 5 gusting 11 24.4
2019-Jul-20 11:38 24.4
2019-Jul-20 11:28 24.4
2019-Jul-20 11:18 25.0
2019-Jul-20 11:13 24.4
2019-Jul-20 11:08 317 4 gusting 11 25.0
2019-Jul-20 10:58 190 3 gusting 11 25.0
2019-Jul-20 10:48 24.4
2019-Jul-20 10:38 011 2 gusting 7 24.4
2019-Jul-20 10:33 001 4 gusting 10 23.9
2019-Jul-20 10:23 359 7 gusting 14 24.4
2019-Jul-20 10:18 354 5 gusting 12 24.4
2019-Jul-20 10:08 074 4 gusting 10 23.9
2019-Jul-20 09:53 001 4 gusting 13 23.9
2019-Jul-20 09:43 024 5 gusting 10 23.9
2019-Jul-20 09:38 23.9
2019-Jul-20 09:33 115 7 gusting 12 23.9
2019-Jul-20 09:18 022 7 gusting 11 23.9
2019-Jul-20 09:13 112 1 gusting 6 23.9
2019-Jul-20 08:58 072 1 gusting 7 23.3
2019-Jul-20 08:53 001 4 gusting 7 22.8
2019-Jul-20 08:48 22.8
2019-Jul-20 08:43 055 1 gusting 7 22.8
2019-Jul-20 08:38 22.8
2019-Jul-20 08:33 195 2 gusting 6 22.8
2019-Jul-20 08:28 010 1 gusting 8 22.2
2019-Jul-20 08:23 22.2
2019-Jul-20 08:18 22.2
2019-Jul-20 08:13 013 3 gusting 7 22.2
2019-Jul-20 08:08 357 2 gusting 6 22.2
2019-Jul-20 07:58 134 2 gusting 8 21.7
2019-Jul-20 07:53 348 1 gusting 4 22.2
2019-Jul-20 07:48 160 1 gusting 4 21.7
2019-Jul-20 07:33 343 4 gusting 6 21.1
2019-Jul-20 07:28 21.1
2019-Jul-20 07:23 21.1
2019-Jul-20 07:18 21.1
2019-Jul-20 07:08 359 0 gusting 5 21.1
2019-Jul-20 07:03 181 0 gusting 4 20.6
2019-Jul-20 06:58 20.6
2019-Jul-20 06:53 356 0 gusting 4 20.6
2019-Jul-20 06:48 20.0
2019-Jul-20 06:43 20.0
2019-Jul-20 06:33 220 19.4
2019-Jul-20 06:28 209 19.4
2019-Jul-20 06:18 209 19.4
2019-Jul-20 06:13 209 18.9
2019-Jul-20 06:08 263 18.9
2019-Jul-20 06:03 18.9
2019-Jul-20 05:58 209 18.9
2019-Jul-20 05:53 209 18.3
2019-Jul-20 05:43 209 18.3
2019-Jul-20 05:38 210 18.3
2019-Jul-20 05:33 322 17.8
2019-Jul-20 05:18 223 17.2
2019-Jul-20 05:08 223 17.2
2019-Jul-20 05:03 223 17.2
2019-Jul-20 04:58 223 16.7
2019-Jul-20 04:53 223 16.7
2019-Jul-20 04:48 225 16.7
2019-Jul-20 04:43 223 16.1
2019-Jul-20 04:38 223 16.1
2019-Jul-20 04:33 223 16.1
2019-Jul-20 04:28 223 15.6
2019-Jul-20 04:23 223 15.6
2019-Jul-20 04:18 223 15.6
2019-Jul-20 04:13 223 15.6
2019-Jul-20 04:08 223 15.0
2019-Jul-20 04:03 223 15.0
2019-Jul-20 03:58 223 15.0
2019-Jul-20 03:53 223 15.0
2019-Jul-20 03:48 223 15.0
2019-Jul-20 03:38 223 15.0
2019-Jul-20 03:33 223 14.4
2019-Jul-20 03:18 223 13.9
2019-Jul-20 03:13 223 13.9
2019-Jul-20 03:08 223 13.9
2019-Jul-20 03:03 223 13.9
2019-Jul-20 02:58 223 13.9
2019-Jul-20 02:53 223 13.3
2019-Jul-20 02:38 223 13.3
2019-Jul-20 02:33 223 13.3
2019-Jul-20 02:23 223 13.3
2019-Jul-20 02:18 223 13.9
2019-Jul-20 02:03 223 13.9
2019-Jul-20 01:58 223 13.9
2019-Jul-20 01:43 223 13.9
2019-Jul-20 01:38 223 13.9
2019-Jul-20 01:33 223 13.9
2019-Jul-20 01:28 223 13.9
2019-Jul-20 01:13 223 13.9
2019-Jul-20 01:03 223 13.9
2019-Jul-20 00:53 223 13.9
2019-Jul-20 00:48 223 13.9
2019-Jul-20 00:43 223 13.9
2019-Jul-20 00:38 223 13.9
2019-Jul-20 00:33 223 13.9
2019-Jul-20 00:28 223 14.4
2019-Jul-20 00:23 223 14.4
2019-Jul-20 00:13 223 15.0
2019-Jul-20 00:03 223 15.0
2019-Jul-19 23:58 252 15.0
2019-Jul-19 23:48 264 15.0
2019-Jul-19 23:43 221 15.0
2019-Jul-19 23:38 355 15.0
2019-Jul-19 23:33 266 15.0
2019-Jul-19 23:18 350 15.0
2019-Jul-19 23:13 335 14.4
2019-Jul-19 23:03 14.4
2019-Jul-19 22:58 14.4
2019-Jul-19 22:48 208 15.0
2019-Jul-19 22:43 252 15.0
2019-Jul-19 22:38 215 15.0
2019-Jul-19 22:33 215 15.0
2019-Jul-19 22:28 215 15.0
2019-Jul-19 22:23 214 15.0
2019-Jul-19 22:13 219 15.0
2019-Jul-19 21:53 219 15.0
2019-Jul-19 21:43 219 15.6
2019-Jul-19 21:38 219 15.6
2019-Jul-19 21:33 219 15.6
2019-Jul-19 21:23 224 16.1
2019-Jul-19 21:18 259 16.1
2019-Jul-19 21:08 287 16.1
2019-Jul-19 21:03 255 16.1
2019-Jul-19 20:58 271 16.1
2019-Jul-19 20:53 227 16.1
2019-Jul-19 20:48 230 16.7
2019-Jul-19 20:43 330 16.7
2019-Jul-19 20:38 219 16.7
2019-Jul-19 20:33 16.7
2019-Jul-19 20:28 16.7
2019-Jul-19 20:18 197 17.2
2019-Jul-19 20:13 197 17.2
2019-Jul-19 20:08 205 17.2
2019-Jul-19 20:03 17.8
2019-Jul-19 19:58 202 17.8
2019-Jul-19 19:48 18.3
2019-Jul-19 19:43 336 18.3
2019-Jul-19 19:38 18.3
2019-Jul-19 19:33 18.3
2019-Jul-19 19:28 359 18.3
2019-Jul-19 19:23 18.9
2019-Jul-19 19:13 340 19.4
2019-Jul-19 19:08 190 19.4
2019-Jul-19 19:03 190 19.4
2019-Jul-19 18:53 190 20.0
2019-Jul-19 18:48 190 20.6
2019-Jul-19 18:43 190 20.6
2019-Jul-19 18:38 190 21.1
2019-Jul-19 18:23 190 21.1
2019-Jul-19 18:18 190 21.1
2019-Jul-19 18:13 190 21.1
2019-Jul-19 18:08 190 21.1
2019-Jul-19 18:03 190 21.7
2019-Jul-19 17:58 190 21.7
2019-Jul-19 17:53 190 21.7
2019-Jul-19 17:48 190 21.7
2019-Jul-19 17:43 190 21.7
2019-Jul-19 17:33 192 21.7
2019-Jul-19 17:28 191 21.7
2019-Jul-19 17:18 191 21.7
2019-Jul-19 17:13 191 21.7
2019-Jul-19 17:08 191 21.7
2019-Jul-19 17:03 191 21.7
2019-Jul-19 16:58 191 21.7
2019-Jul-19 16:48 191 21.7
2019-Jul-19 16:43 196 21.7
2019-Jul-19 16:33 22.2
2019-Jul-19 16:28 190 22.2
2019-Jul-19 16:18 22.8
2019-Jul-19 16:13 22.8
2019-Jul-19 15:58 003 23.3
2019-Jul-19 15:53 285 23.9
2019-Jul-19 15:43 354 23.9
2019-Jul-19 15:33 321 24.4
2019-Jul-19 15:28 001 24.4
2019-Jul-19 15:23 003 24.4
2019-Jul-19 15:18 024 24.4
2019-Jul-19 15:13 357 24.4
2019-Jul-19 15:08 322 24.4
2019-Jul-19 15:03 003 24.4
2019-Jul-19 14:58 347 24.4
2019-Jul-19 14:53 24.4
2019-Jul-19 14:48 004 24.4
2019-Jul-19 14:38 003 25.0
2019-Jul-19 14:23 358 25.0
2019-Jul-19 14:18 075 24.4
2019-Jul-19 14:13 095 25.0
2019-Jul-19 14:03 25.0